Epoch 1997 Mar. 13.0 TT = JDT 2450520.5
T 1997 Mar. 2.35117 TT Rudenko
q 2.0545718 (2000.0) P Q
n 0.03915982 Peri. 183.34181 -0.88555809 -0.45132872
a 8.5883337 Node 329.06412 +0.43100250 -0.71000854
e 0.7607718 Incl. 12.34983 +0.17327351 -0.54054625
P 25.2
From 263 observations 1997 Jan. 30-2022 Jan. 11, mean residual 0".6.